"Pseudo-MPEC" for P12oEF0

Created 2026 Jul 28 21:35:08 UT using Find_Orb

Click here for an explanation of pseudo-MPECs

 
 Astrometry: 
     P12oEF0*0C2026 07 25.57908823 56 39.947-04 17 20.28   ~7PJZ 20.96wXNEOCPF51
     P12oEF0 0C2026 07 25.58972123 56 41.424-04 17 30.51   ~7PJZ 21.43wXNEOCPF51
     P12oEF0 0C2026 07 25.60053523 56 42.907-04 17 40.74   ~7PJZ 21.56wXNEOCPF51
     P12oEF0 0C2026 07 25.61115523 56 44.372-04 17 50.83   ~7PJZ 21.24wXNEOCPF51
     P12oEF0 KB2026 07 26.38326423 58 38.266-04 30 20.74   ~7QAK 21.1 GXNEOCP734
     P12oEF0 KB2026 07 26.40991923 58 41.801-04 30 44.64   ~7QAK 21.4 GXNEOCP734
     P12oEF0 0C2026 07 26.49813123 58 55.490-04 32 04.64   ~7QDZ 21.33wXNEOCPF52
     P12oEF0 0C2026 07 26.50773023 58 56.781-04 32 13.98   ~7QDZ 21.25wXNEOCPF52
     P12oEF0 0C2026 07 26.51730823 58 58.092-04 32 23.47   ~7QDZ 21.32wXNEOCPF52
     P12oEF0 0C2026 07 26.52698123 58 59.397-04 32 32.82   ~7QDZ 21.36wXNEOCPF52

Station data:
(734) Farpoint Observatory, Eskridge  (N38.890239 W96.002420)  US/Kansas.
   Observer G. Hug. 0.69-m reflector + CCD.
(F51) Pan-STARRS 1, Haleakala  (N20.707234 W156.255910)  US/Hawaii.
   Observers J. Herman, T. Lowe, P. Minguez, A. Schultz, I. Smith. Measurers
   K. Chambers, T. de Boer, J. Fairlamb, H. Gao, M. Huber, C.-C. Lin, E.
   Magnier, Y. Ramanjooloo, R. Wainscoat, R. Weryk. 1.8-m Ritchey-Chrétien +
   CCD.
(F52) Pan-STARRS 2, Haleakala  (N20.707382 W156.255910)  US/Hawaii.
   Observers J. Herman, T. Lowe, P. Minguez, A. Schultz, I. Smith. Measurers
   K. Chambers, T. de Boer, J. Fairlamb, H. Gao, M. Huber, C.-C. Lin, E.
   Magnier, Y. Ramanjooloo, R. Wainscoat, R. Weryk. 1.8-m Ritchey-Chrétien +
   CCD.

Orbital elements:  P12oEF0
   Perihelion 2026 Jul 9.878678 +/- 3.71 TT = 21:05:17.7 (JD 2461231.378678)
Epoch 2026 Jul 26.0 TT = JDT 2461247.5   Earth MOID: 0.2112      AutoNEOCP
M   6.019354299 +/- 0.6             (J2000 ecliptic)
n   0.373378454 +/- 0.0605          Peri.  173.077701 +/- 3.4
a   1.910013982 +/- 0.206           Node   128.780016 +/- 0.47
e   0.35806296 +/- 0.072            Incl.    8.818815 +/- 0.36
P   2.640/964.151d         H 21.54  G  0.15   U 10.9
q 1.226108717 +/- 0.0126    Q 2.593919247 +/- 0.417
From 10 observations 2026 July 25-26 (22.7 hr); mean residual 0".44
Residuals in arcseconds: 
260725 F51  .14-  .06+    260726 734  .72+  .74-    260726 F52  .05+  .09-    
260725 F51  .07+  .06-    260726 734  .97-  1.3+    260726 F52  .04-  .04+    
260725 F51  .00   .01-    260726 F52  .14+  .06-    
260725 F51  .06+  .01-    260726 F52  .10-  .01+    

Ephemerides (geocentric):
Date (UTC) HH   RA             Dec           delta  r     elong  mag " sig PA
---- --------  ------------   ------------  ------ ------ -----  --- --------
2026 07 28 22  00 04 36.169   -05 12 23.22  .32885 1.2388 126.3 21.2 12.8 105
2026 07 28 23  00 04 41.884   -05 13 06.34  .32882 1.2388 126.3 21.2 13.1 105
2026 07 29 00  00 04 47.594   -05 13 49.50  .32879 1.2389 126.4 21.2 13.5 105
2026 07 29 01  00 04 53.298   -05 14 32.70  .32876 1.2389 126.4 21.2 13.8 105
2026 07 29 02  00 04 58.996   -05 15 15.94  .32874 1.2390 126.4 21.2 14.2 105
2026 07 29 03  00 05 04.688   -05 15 59.22  .32871 1.2390 126.4 21.2 14.6 105
2026 07 29 04  00 05 10.374   -05 16 42.54  .32868 1.2391 126.4 21.2 14.9 105
2026 07 29 05  00 05 16.055   -05 17 25.91  .32865 1.2391 126.5 21.2 15.3 105
2026 07 29 06  00 05 21.729   -05 18 09.32  .32863 1.2392 126.5 21.2 15.7 105
2026 07 29 07  00 05 27.398   -05 18 52.76  .32860 1.2393 126.5 21.2 16.1 105
2026 07 29 08  00 05 33.060   -05 19 36.25  .32857 1.2393 126.5 21.2 16.5 105
2026 07 29 09  00 05 38.717   -05 20 19.78  .32854 1.2394 126.6 21.2 16.9 105
2026 07 29 10  00 05 44.368   -05 21 03.36  .32852 1.2394 126.6 21.2 17.3 105
2026 07 29 11  00 05 50.013   -05 21 46.97  .32849 1.2395 126.6 21.2 17.7 105
2026 07 29 12  00 05 55.652   -05 22 30.62  .32846 1.2395 126.6 21.2 18.1 105
2026 07 29 13  00 06 01.285   -05 23 14.32  .32844 1.2396 126.6 21.2 18.5 105
2026 07 29 14  00 06 06.913   -05 23 58.05  .32841 1.2396 126.7 21.2 18.9 105
2026 07 29 15  00 06 12.534   -05 24 41.83  .32838 1.2397 126.7 21.2 19.4 105
2026 07 29 16  00 06 18.149   -05 25 25.65  .32836 1.2398 126.7 21.2 19.8 105
2026 07 29 17  00 06 23.759   -05 26 09.50  .32833 1.2398 126.7 21.2 20.2 105
2026 07 29 18  00 06 29.362   -05 26 53.40  .32831 1.2399 126.7 21.2 20.7 105
2026 07 29 19  00 06 34.960   -05 27 37.34  .32828 1.2399 126.8 21.2 21.1 105
2026 07 29 20  00 06 40.551   -05 28 21.32  .32825 1.2400 126.8 21.2 21.6 105
2026 07 29 21  00 06 46.137   -05 29 05.34  .32823 1.2400 126.8 21.2 22.0 105
2026 07 29 22  00 06 51.716   -05 29 49.41  .32820 1.2401 126.8 21.2 22.5 105
2026 07 29 23  00 06 57.290   -05 30 33.51  .32818 1.2402 126.9 21.2 22.9 105
2026 07 30 00  00 07 02.858   -05 31 17.65  .32815 1.2402 126.9 21.2 23.4 105
2026 07 30 01  00 07 08.419   -05 32 01.83  .32813 1.2403 126.9 21.2 23.9 105
2026 07 30 02  00 07 13.975   -05 32 46.06  .32810 1.2403 126.9 21.2 24.4 105
2026 07 30 03  00 07 19.524   -05 33 30.32  .32808 1.2404 126.9 21.2 24.9 105
2026 07 30 04  00 07 25.068   -05 34 14.62  .32805 1.2404 127.0 21.2 25.3 105
2026 07 30 05  00 07 30.606   -05 34 58.97  .32803 1.2405 127.0 21.2 25.8 105
2026 07 30 06  00 07 36.137   -05 35 43.35  .32800 1.2406 127.0 21.2 26.3 105
2026 07 30 07  00 07 41.663   -05 36 27.77  .32798 1.2406 127.0 21.2 26.8 105
2026 07 30 08  00 07 47.183   -05 37 12.24  .32795 1.2407 127.1 21.2 27.3 105
2026 07 30 09  00 07 52.696   -05 37 56.74  .32793 1.2407 127.1 21.2 27.8 105
2026 07 30 10  00 07 58.204   -05 38 41.28  .32790 1.2408 127.1 21.2 28.4 105
2026 07 30 11  00 08 03.705   -05 39 25.87  .32788 1.2409 127.1 21.2 28.9 105
2026 07 30 12  00 08 09.200   -05 40 10.49  .32786 1.2409 127.1 21.2 29.4 105
2026 07 30 13  00 08 14.690   -05 40 55.15  .32783 1.2410 127.2 21.2 29.9 105
2026 07 30 14  00 08 20.173   -05 41 39.86  .32781 1.2410 127.2 21.2 30.5 105
2026 07 30 15  00 08 25.650   -05 42 24.60  .32778 1.2411 127.2 21.2 31.0 105
2026 07 30 16  00 08 31.121   -05 43 09.38  .32776 1.2412 127.2 21.2 31.6 105
2026 07 30 17  00 08 36.587   -05 43 54.20  .32774 1.2412 127.2 21.2 32.1 105
2026 07 30 18  00 08 42.046   -05 44 39.06  .32771 1.2413 127.3 21.2 32.7 105
2026 07 30 19  00 08 47.498   -05 45 23.96  .32769 1.2413 127.3 21.2 33.2 105
2026 07 30 20  00 08 52.945   -05 46 08.90  .32767 1.2414 127.3 21.2 33.8 105
2026 07 30 21  00 08 58.386   -05 46 53.88  .32764 1.2415 127.3 21.2 34.3 105